User: anonymous   Login
Location: Unspecified
(0.0000°N, 0.0000°E)
Time: 19:35:31
(UTC+00:00)
Language:

LO-87 - Orbit

View from above orbital plane
View from above orbital plane
View from above satellite
View from above satellite

Ground track
Ground track

The orbit data is extracted from the following two-line orbital elements,

1 41557U 16033B   21267.11344075  .00002606  00000-0  92430-4 0  9994
2 41557  97.3940   0.5311 0011235 241.5682 238.6915 15.29938905296615
Epoch (UTC): 24 September 2021 02:43:21
Eccentricity: 0.0011235
inclination: 97.3940°
perigee height: 468 km
apogee height: 484 km
right ascension of ascending node: 0.5311°
argument of perigee: 241.5682°
revolutions per day: 15.29938905
mean anomaly at epoch: 238.6915°
orbit number at epoch: 29661

The dashed part of the orbit path shows where the satellite is in the earth's shadow,  

DLR